Location: Nairn
(57.5833°N, 3.8667°W)
Time: 08:55:47
(UTC+00:00)

Vanguard 1 - Pass Details

Date: 29 November 2020
Orbit: 649 x 3834 km, 34.3° (Epoch: 15 January)

Event Time Altitude Azimuth Distance (km) Brightness Sun altitude
Rises 06:17:25 0° 216° (SW) 3,796 12.9 -16.3°
Reaches altitude 10° 06:21:04 10° 193° (SSW) 3,259 12.8 -15.8°
Maximum altitude 06:25:32 15° 160° (SSE) 3,373 13.3 -15.3°
Drops below altitude 10° 06:31:22 10° 130° (SE) 4,490 14.6 -14.5°
Sets 06:38:08 0° 112° (ESE) 6,238 16.2 -13.7°
